NOZ328 ENTC-ENAT

Flight info

Callsign NOZ328
Flight time 0h 26m
Altitude 15000
Route ERPUG DCT UDSAM
Aircraft B738/M-SDE2E3FGHIRWXY/LB1

Departure

Time 2026-05-04 12:45
Airport Tromsø Airport (ENTC)

Arrival

Time 2026-05-04 13:12
Airport Alta Airport (ENAT)
Time Latitude Longitude Altitude Speed Heading
2026-05-04 12:16 69.67931 18.90893 32 ft 0 kts 283°
2026-05-04 12:36 69.67928 18.90926 60 ft 4 kts 282°
2026-05-04 12:36 69.67923 18.91003 31 ft 4 kts 279°
2026-05-04 12:37 69.67919 18.91079 32 ft 4 kts 274°
2026-05-04 12:37 69.67918 18.91156 33 ft 4 kts 262°
2026-05-04 12:37 69.67926 18.91223 32 ft 4 kts 218°
2026-05-04 12:37 69.67932 18.91237 32 ft 1 kts 193°
2026-05-04 12:41 69.67932 18.91236 34 ft 1 kts 193°
2026-05-04 12:42 69.67905 18.91216 34 ft 9 kts 194°
2026-05-04 12:42 69.67820 18.91160 34 ft 15 kts 192°
2026-05-04 12:42 69.67712 18.91085 34 ft 16 kts 194°
2026-05-04 12:42 69.67634 18.91129 34 ft 12 kts 115°
2026-05-04 12:43 69.67611 18.91345 39 ft 11 kts 130°
2026-05-04 12:43 69.67537 18.91361 40 ft 12 kts 193°
2026-05-04 12:43 69.67433 18.91291 37 ft 18 kts 193°
2026-05-04 12:43 69.67318 18.91208 33 ft 15 kts 204°
2026-05-04 12:44 69.67265 18.91109 32 ft 7 kts 193°
2026-05-04 12:44 69.67258 18.91206 33 ft 7 kts 36°
2026-05-04 12:44 69.67285 18.91200 33 ft 1 kts 355°
2026-05-04 12:45 69.67375 18.91251 36 ft 42 kts 14°
2026-05-04 12:45 69.67894 18.91597 38 ft 110 kts 13°
2026-05-04 12:45 69.68824 18.92219 123 ft 156 kts 14°
2026-05-04 12:45 69.69877 18.93010 870 ft 158 kts 15°
2026-05-04 12:46 69.71001 18.93819 1369 ft 181 kts 15°
2026-05-04 12:46 69.72348 18.94684 1603 ft 207 kts 14°
2026-05-04 12:46 69.73782 18.95901 1896 ft 228 kts 29°
2026-05-04 12:46 69.74967 18.99213 1995 ft 253 kts 65°
2026-05-04 12:47 69.75303 19.04206 2780 ft 256 kts 93°
2026-05-04 12:47 69.75291 19.09268 3793 ft 251 kts 82°
2026-05-04 12:47 69.75904 19.14072 4488 ft 260 kts 58°
2026-05-04 12:47 69.76923 19.18416 5307 ft 263 kts 55°
2026-05-04 12:48 69.78000 19.22745 6062 ft 267 kts 54°
2026-05-04 12:48 69.79087 19.27160 6803 ft 271 kts 55°
2026-05-04 12:48 69.80030 19.31896 7524 ft 275 kts 75°
2026-05-04 12:48 69.80174 19.37384 8309 ft 275 kts 92°
2026-05-04 12:49 69.80102 19.42958 9044 ft 280 kts 93°
2026-05-04 12:49 69.80023 19.48637 9735 ft 285 kts 93°
2026-05-04 12:49 69.79943 19.54557 9984 ft 306 kts 92°
2026-05-04 12:49 69.79863 19.60830 10173 ft 326 kts 92°
2026-05-04 12:50 69.79783 19.67508 10651 ft 337 kts 92°
2026-05-04 12:50 69.79702 19.74325 11313 ft 341 kts 92°
2026-05-04 12:50 69.79623 19.81209 12053 ft 344 kts 92°
2026-05-04 12:50 69.79538 19.88153 12800 ft 347 kts 92°
2026-05-04 12:51 69.79449 19.95165 13540 ft 350 kts 92°
2026-05-04 12:51 69.79411 20.02228 14170 ft 353 kts 88°
2026-05-04 12:51 69.79677 20.09211 14309 ft 346 kts 82°
2026-05-04 12:51 69.80090 20.16096 14507 ft 350 kts 80°
2026-05-04 12:52 69.80531 20.22990 14532 ft 349 kts 80°
2026-05-04 12:52 69.80965 20.29924 14552 ft 353 kts 81°
2026-05-04 12:52 69.81384 20.36944 14543 ft 354 kts 81°
2026-05-04 12:52 69.81786 20.43960 14549 ft 353 kts 81°
2026-05-04 12:53 69.82174 20.50973 14542 ft 352 kts 82°
2026-05-04 12:53 69.82552 20.57972 14557 ft 352 kts 82°
2026-05-04 12:53 69.82924 20.64975 14557 ft 351 kts 82°
2026-05-04 12:53 69.83286 20.71853 14541 ft 339 kts 82°
2026-05-04 12:54 69.83633 20.78523 14391 ft 332 kts 82°
2026-05-04 12:54 69.83970 20.85061 14208 ft 324 kts 82°
2026-05-04 12:54 69.84300 20.91491 13898 ft 321 kts 82°
2026-05-04 12:54 69.84623 20.97860 13615 ft 317 kts 82°
2026-05-04 12:55 69.84941 21.04162 13287 ft 314 kts 82°
2026-05-04 12:55 69.85254 21.10410 12966 ft 311 kts 82°
2026-05-04 12:55 69.85561 21.16580 12647 ft 308 kts 82°
2026-05-04 12:55 69.85863 21.22687 12333 ft 304 kts 82°
2026-05-04 12:56 69.86158 21.28656 12030 ft 301 kts 82°
2026-05-04 12:56 69.86451 21.34660 11687 ft 300 kts 83°
2026-05-04 12:56 69.86739 21.40640 11397 ft 297 kts 83°
2026-05-04 12:56 69.87032 21.46566 11082 ft 296 kts 79°
2026-05-04 12:57 69.87831 21.52011 10788 ft 296 kts 53°
2026-05-04 12:57 69.89206 21.56441 10561 ft 297 kts 45°
2026-05-04 12:57 69.90694 21.60669 10306 ft 301 kts 44°
2026-05-04 12:57 69.92203 21.64910 10082 ft 300 kts 44°
2026-05-04 12:58 69.93691 21.69127 9787 ft 298 kts 44°
2026-05-04 12:58 69.95150 21.73309 9649 ft 290 kts 44°
2026-05-04 12:58 69.96561 21.77384 9488 ft 283 kts 44°
2026-05-04 12:58 69.97952 21.81428 9170 ft 281 kts 45°
2026-05-04 12:59 69.99331 21.85453 8869 ft 279 kts 45°
2026-05-04 12:59 70.00698 21.89451 8566 ft 277 kts 45°
2026-05-04 12:59 70.01906 21.93791 8227 ft 276 kts 64°
2026-05-04 12:59 70.02592 21.99034 7936 ft 275 kts 71°
2026-05-04 13:00 70.03222 22.04321 7626 ft 276 kts 71°
2026-05-04 13:00 70.03853 22.09610 7338 ft 275 kts 71°
2026-05-04 13:00 70.04487 22.14896 7015 ft 275 kts 71°
2026-05-04 13:00 70.05119 22.20140 6820 ft 271 kts 71°
2026-05-04 13:01 70.05749 22.25359 6561 ft 272 kts 71°
2026-05-04 13:01 70.06377 22.30560 6302 ft 271 kts 71°
2026-05-04 13:01 70.07005 22.35768 6051 ft 270 kts 71°
2026-05-04 13:01 70.07628 22.40942 5794 ft 269 kts 71°
2026-05-04 13:02 70.08248 22.46095 5540 ft 266 kts 71°
2026-05-04 13:02 70.08858 22.51165 5261 ft 260 kts 71°
2026-05-04 13:02 70.09447 22.56076 5066 ft 248 kts 71°
2026-05-04 13:02 70.09990 22.60637 4981 ft 225 kts 71°
2026-05-04 13:03 70.10478 22.64752 4962 ft 203 kts 72°
2026-05-04 13:03 70.10903 22.68576 4971 ft 193 kts 81°
2026-05-04 13:03 70.10715 22.72377 4906 ft 193 kts 118°
2026-05-04 13:03 70.10099 22.75942 4757 ft 201 kts 111°
2026-05-04 13:04 70.09567 22.79762 4546 ft 200 kts 119°
2026-05-04 13:04 70.08894 22.83193 4399 ft 188 kts 123°
2026-05-04 13:04 70.08224 22.86386 4240 ft 179 kts 123°
2026-05-04 13:04 70.07592 22.89375 4110 ft 177 kts 123°
2026-05-04 13:05 70.06984 22.92250 4024 ft 177 kts 123°
2026-05-04 13:05 70.06338 22.95320 3945 ft 178 kts 123°
2026-05-04 13:05 70.05690 22.98416 3670 ft 178 kts 122°
2026-05-04 13:05 70.05046 23.01488 3356 ft 175 kts 123°
2026-05-04 13:06 70.04429 23.04432 3060 ft 168 kts 123°
2026-05-04 13:06 70.03834 23.07273 2779 ft 159 kts 122°
2026-05-04 13:06 70.03271 23.09959 2474 ft 151 kts 122°
2026-05-04 13:06 70.02717 23.12610 2145 ft 153 kts 121°
2026-05-04 13:07 70.02160 23.15198 1953 ft 150 kts 122°
2026-05-04 13:07 70.01594 23.17696 1867 ft 142 kts 122°
2026-05-04 13:07 70.01153 23.20317 1796 ft 144 kts 108°
2026-05-04 13:07 70.00981 23.23185 1789 ft 145 kts 91°
2026-05-04 13:08 70.00981 23.26067 1805 ft 145 kts 86°
2026-05-04 13:08 70.01025 23.29005 1791 ft 146 kts 86°
2026-05-04 13:08 70.01070 23.32016 1786 ft 148 kts 86°
2026-05-04 13:08 70.01090 23.35043 1774 ft 148 kts 89°
2026-05-04 13:09 70.01066 23.38055 1774 ft 152 kts 92°
2026-05-04 13:09 70.00987 23.41053 1632 ft 144 kts 96°
2026-05-04 13:09 70.00864 23.43955 1498 ft 146 kts 97°
2026-05-04 13:09 70.00534 23.46729 1376 ft 145 kts 127°
2026-05-04 13:10 69.99767 23.48628 1136 ft 145 kts 149°
2026-05-04 13:10 69.98854 23.49725 848 ft 142 kts 180°
2026-05-04 13:10 69.97993 23.48512 714 ft 140 kts 223°
2026-05-04 13:10 69.97444 23.46214 601 ft 140 kts 238°
2026-05-04 13:11 69.96980 23.43761 489 ft 135 kts 241°
2026-05-04 13:11 69.96846 23.41190 373 ft 127 kts 284°
2026-05-04 13:11 69.97242 23.38908 95 ft 126 kts 303°
2026-05-04 13:11 69.97670 23.36870 20 ft 97 kts 293°
2026-05-04 13:12 69.97906 23.35737 18 ft 37 kts 300°
2026-05-04 13:12 69.97942 23.35419 22 ft 11 kts 242°
2026-05-04 13:12 69.97887 23.35281 22 ft 6 kts 225°
2026-05-04 13:12 69.97880 23.35259 21 ft 0 kts 230°
2026-05-04 13:13 69.97876 23.35237 20 ft 3 kts 244°
2026-05-04 13:13 69.97869 23.35130 19 ft 8 kts 260°
2026-05-04 13:14 69.97879 23.34978 21 ft 6 kts 300°
2026-05-04 13:14 69.97895 23.34862 19 ft 6 kts 260°
2026-05-04 13:14 69.97862 23.34783 19 ft 6 kts 211°
2026-05-04 13:14 69.97841 23.34745 19 ft 2 kts 211°
2026-05-04 13:15 69.97839 23.34743 19 ft 0 kts 211°